This demonstration page uses our WeatherBlox Daily Observations layout. Learn more.

40.92945, -100.16068

Hourly Observations for May 17, 2018

Temp ( °F °C ) Dew Point ( °F °C ) Humidity (%) Winds ( mph kmh ) Pressure ( in mb ) Visibility ( mi km ) Precip ( " mm )
12:15 am 00:15 Clear 65 18.5 54 12.1 66 66 ESE 8 13 29.91 1013 10 16.0934 0 0
12:35 am 00:35 Clear 65 18.6 53 11.7 64 64 SE 7 11 29.91 1013 10 16.0934 0 0
12:55 am 00:55 Clear 64 17.5 54 12 70 70 SE 6 9 29.91 1013 10 16.0934 0 0
1:15 am 01:15 Clear 63 17 54 12 73 73 SE 6 9 29.91 1013 10 16.0934 0 0
1:35 am 01:35 Clear 62 16.7 54 12 74 74 SSE 5 7 29.91 1013 10 16.0934 0 0
1:55 am 01:55 Clear 62 16.8 54 12.2 74 74 SE 5 7 29.91 1013 10 16.0934 0 0
2:15 am 02:15 Clear 62 16.5 55 12.5 77 77 SE 6 9 29.91 1013 10 16.0934 0 0
2:35 am 02:35 Clear 61 16.2 55 12.7 80 80 SSE 6 9 29.91 1013 10 16.0934 0 0
2:55 am 02:55 Clear 61 16.2 55 12.9 81 81 SSE 5 7 29.91 1013 10 16.0934 0 0
3:15 am 03:15 Clear 62 16.4 55 12.6 78 78 ESE 3 6 29.91 1013 10 16.0934 0 0
3:35 am 03:35 Clear 62 16.5 55 12.7 78 78 SE 3 6 29.91 1013 10 16.0934 0 0
3:55 am 03:55 Clear 60 15.7 55 12.6 82 82 ESE 7 11 29.94 1014 10 16.0934 0 0
4:15 am 04:15 Clear 61 16.1 55 12.9 81 81 SE 7 11 29.94 1014 10 16.0934 0 0
4:35 am 04:35 Clear 61 16 55 13 83 83 SE 6 9 29.94 1014 10 16.0934 0 0
4:55 am 04:55 Partly Cloudy 62 16.5 55 12.9 79 79 SSE 6 9 29.91 1013 10 16.0934 0 0
5:15 am 05:15 Partly Cloudy 60 15.7 55 12.7 82 82 Calm 29.94 1014 10 16.0934 0 0
5:35 am 05:35 Partly Cloudy 59 14.8 55 12.6 87 87 SE 6 9 29.94 1014 10 16.0934 0 0
5:55 am 05:55 Mostly Cloudy 60 15.4 55 12.5 83 83 ESE 5 7 29.94 1014 10 16.0934 0 0
6:15 am 06:15 Partly Cloudy 61 16 55 12.6 80 80 SE 5 7 29.94 1014 10 16.0934 0 0
6:35 am 06:35 Sunny 58 14.6 54 12.3 86 86 ESE 7 11 29.94 1014 10 16.0934 0 0
6:55 am 06:55 Sunny 58 14.3 54 12.4 88 88 SE 6 9 29.94 1014 10 16.0934 0 0
7:15 am 07:15 Sunny 59 14.8 55 12.8 88 88 SE 5 7 29.94 1014 10 16.0934 0 0
7:35 am 07:35 Sunny 62 16.5 56 13.3 82 82 SE 5 7 29.91 1013 10 16.0934 0 0
7:55 am 07:55 Sunny 64 17.5 56 13.6 78 78 SE 5 7 29.94 1014 10 16.0934 0 0
8:15 am 08:15 Sunny 64 17.6 57 13.8 79 79 E 5 7 29.94 1014 10 16.0934 0 0
8:35 am 08:35 Sunny 65 18.1 58 14.4 79 79 E 7 11 29.94 1014 10 16.0934 0 0
8:55 am 08:55 Sunny 66 18.7 59 14.8 78 78 E 9 15 29.94 1014 10 16.0934 0 0
9:15 am 09:15 Sunny 67 19.5 59 14.9 75 75 ESE 9 15 29.94 1014 10 16.0934 0 0
9:35 am 09:35 Sunny 69 20.4 60 15.4 73 73 ESE 10 17 29.91 1013 10 16.0934 0 0
9:55 am 09:55 Sunny 71 21.5 60 15.8 70 70 ESE 12 19 29.88 1012 10 16.0934 0 0
10:15 am 10:15 Sunny 73 22.7 61 16.1 66 66 SE 12 19 29.88 1012 10 16.0934 0 0
10:35 am 10:35 Sunny 76 24.7 60 15.6 57 57 SSE 15 24 29.85 1011 10 16.0934 0 0
10:55 am 10:55 Sunny 78 25.3 58 14.2 50 50 S 20 31 29.85 1011 10 16.0934 0 0
11:15 am 11:15 Sunny 78 25.8 58 14.3 49 49 S 16 26 29.85 1011 10 16.0934 0 0
11:35 am 11:35 Sunny 80 26.5 58 14.2 47 47 SSE 18 30 29.85 1011 10 16.0934 0 0
11:55 am 11:55 Sunny 80 26.7 59 14.8 48 48 SSE 20 31 29.8 1009 10 16.0934 0 0
12:15 pm 12:15 Sunny 81 27 60 15.4 49 49 SSE 16 26 29.8 1009 10 16.0934 0 0
12:35 pm 12:35 Sunny 81 27.4 58 14.4 45 45 SSE 20 31 29.8 1009 10 16.0934 0 0
12:55 pm 12:55 Sunny 82 27.8 58 14.4 44 44 SE 21 33 29.77 1008 10 16.0934 0 0
1:15 pm 13:15 Sunny 83 28.3 59 14.8 44 44 SSE 20 31 29.77 1008 10 16.0934 0 0
1:35 pm 13:35 Sunny 83 28.3 58 14.2 42 42 SSE 18 30 29.77 1008 10 16.0934 0 0
1:55 pm 13:55 Sunny 83 28.6 58 14.7 43 43 SSE 16 26 29.77 1008 10 16.0934 0 0
2:15 pm 14:15 Sunny 84 28.8 59 14.8 42 42 SSE 17 28 29.74 1007 10 16.0934 0 0
2:35 pm 14:35 Partly Cloudy 85 29.2 60 15.3 43 43 S 17 28 29.74 1007 10 16.0934 0 0
2:55 pm 14:55 Partly Cloudy 84 29 58 14.7 42 42 SSE 16 26 29.74 1007 10 16.0934 0 0
3:15 pm 15:15 Mostly Cloudy 85 29.5 57 14.1 39 39 SE 17 28 29.68 1005 10 16.0934 0 0
3:35 pm 15:35 Partly Cloudy 85 29.7 57 13.7 38 38 SE 17 28 29.68 1005 10 16.0934 0 0
3:55 pm 15:55 Partly Cloudy 85 29.3 56 13.1 37 37 SSE 17 28 29.68 1005 10 16.0934 0 0
4:15 pm 16:15 Partly Cloudy 86 29.8 57 14 38 38 SE 16 26 29.68 1005 10 16.0934 0 0
4:35 pm 16:35 Mostly Cloudy 85 29.6 56 13.3 37 37 SE 21 33 29.65 1004 10 16.0934 0 0
4:55 pm 16:55 Partly Cloudy 85 29.5 56 13.2 37 37 SE 17 28 29.65 1004 10 16.0934 0 0
5:15 pm 17:15 Mostly Cloudy 85 29.3 55 12.8 36 36 SE 17 28 29.65 1004 10 16.0934 0 0
5:35 pm 17:35 Partly Cloudy 85 29.6 55 12.8 36 36 SE 20 31 29.65 1004 10 16.0934 0 0
5:55 pm 17:55 Partly Cloudy 85 29.3 55 13 37 37 SE 18 30 29.65 1004 10 16.0934 0 0
6:15 pm 18:15 Partly Cloudy 84 29 55 12.8 37 37 SE 21 33 29.62 1003 10 16.0934 0 0
6:35 pm 18:35 Sunny 84 28.7 55 12.8 38 38 SE 21 33 29.62 1003 10 16.0934 0 0
6:55 pm 18:55 Sunny 83 28.6 56 13.3 39 39 SE 22 35 29.62 1003 10 16.0934 0 0
7:15 pm 19:15 Sunny 82 28 56 13.6 41 41 SE 21 33 29.65 1004 10 16.0934 0 0
7:35 pm 19:35 Sunny 82 27.6 57 13.7 42 42 SE 20 31 29.65 1004 10 16.0934 0 0
7:55 pm 19:55 Sunny 81 27.1 56 13.5 43 43 SE 22 35 29.65 1004 10 16.0934 0 0
8:15 pm 20:15 Sunny 80 26.5 56 13.3 44 44 SE 16 26 29.65 1004 10 16.0934 0 0
8:35 pm 20:35 Sunny 79 25.9 55 13 45 45 SE 20 31 29.65 1004 10 16.0934 0 0
8:55 pm 20:55 Clear 78 25.4 55 12.7 45 45 SE 21 33 29.62 1003 10 16.0934 0 0
9:15 pm 21:15 Clear 77 24.9 54 12.4 46 46 SE 16 26 29.65 1004 10 16.0934 0 0
9:35 pm 21:35 Clear 76 24.3 54 12.2 47 47 SE 16 26 29.68 1005 10 16.0934 0 0
9:55 pm 21:55 Clear 75 23.8 54 12.2 48 48 SE 17 28 29.68 1005 10 16.0934 0 0
10:15 pm 22:15 Clear 74 23.5 54 12.1 49 49 SE 17 28 29.68 1005 10 16.0934 0 0
10:35 pm 22:35 Clear 74 23.2 54 12 49 49 SE 17 28 29.68 1005 10 16.0934 0 0
10:55 pm 22:55 Clear 73 23 54 12 50 50 SE 17 28 29.71 1006 10 16.0934 0 0
11:15 pm 23:15 Clear 73 22.7 54 12 51 51 SE 15 24 29.71 1006 10 16.0934 0 0
11:35 pm 23:35 Clear 73 22.5 53 11.4 50 50 SE 18 30 29.71 1006 10 16.0934 0 0
11:55 pm 23:55 Clear 72 22 52 11.1 50 50 SE 15 24 29.71 1006 10 16.0934 0 0

Powered by AerisWeather